www.pogodaiklimat.ru

Погода и климат >> Архив погоды >> Мексика >> Пачука


ПОГОДА в Пачуке

  • Прогноз погоды в Пачуке
  • Монитор погоды в Пачуке

АРХИВ ПОГОДЫ в Пачуке

Время (UTC), дата Ветер
(напр.,м/с)
 
Видим.   Явления Облачность Т
(С)
Тd
(С)
f
(%)
Тe
(С)
Тes
(С)
Комфортность P
(гПа)
Po
(гПа)
Тmin
(С)
Tmax
(С)
R
(мм)
R24
(мм)
S
(см)
12 17.03 штиль 0 6000 м мгла ясно +10.4 +6.4 76 +10 +10 1015.4 771.0 +10.3 +24.0
15 17.03 СЗ 2 6000 м мгла 10/0
[Cs]
+12.4 +7.1 70 +12 +17 1017.9 772.2
18 17.03 СЗ 3 6000 м мгла 10/4 1500 м
[Cu med, cong Cs]
+19.8 +7.8 46 +21 +29 комфорт 1015.7 771.7 +9.6 +21.2
21 17.03 СЗ 3 6000 м мгла 6/6 1500 м
[Cu med, cong]
+22.8 +7.0 36 +24 +28 комфорт 1009.2 768.7
00 18.03 С 14 6000 м мгла 9/3 1200 м
[Cu Sc As trans]
+17.6 +8.1 54 +16 +16 1006.4 768.1 +9.6 +25.0
12 18.03 штиль 0 4000 м мгла 8/8 420 м
[Frnb]
+9.8 +6.8 82 +9 +9 1013.5 769.8 +8.8 +25.0
15 18.03 С 4 6000 м мгла 4/0
[Ac lent]
+13.0 +7.8 71 +11 +14 1016.5 771.1
18 18.03 С 8 6000 м мгла 5/5 1500 м
[Cu med, cong]
+21.6 +9.0 44 +23 +25 комфорт 1013.6 770.1 +8.8 +22.0
21 18.03 СЗ 8 6000 м мгла 5/5 1500 м
[Cu med, cong]
+21.2 +11.5 54 +23 +24 комфорт 1010.7 769.8
00 19.03 СЗ 8 6000 м мгла 4/4 1500 м
[Cu med, cong]
+16.3 +10.8 70 +15 +15 1005.5 767.2 +8.8 +24.5
03 19.03 СЗ 5 4000 м мгла 4/0
[As op]
+11.8 +8.0 78 +9 +9 1008.7 769.8
06 19.03 СЗ 2 4000 м мгла ясно +10.0 +6.9 81 +9 +9 1011.6 770.4 +8.8 +24.5
09 19.03 штиль 0 4000 м мгла ясно +7.6 +6.0 90 +7 +7 1013.7 769.6
12 19.03 штиль 0 4000 м мгла ясно +6.3 +5.1 92 +5 +5 1016.7 769.9 +6.1 +24.5
15 19.03 СЗ 2 6000 м мгла 1/1 500 м
[St]
+10.8 +6.8 76 +10 +16 1019.6 771.3
18 19.03 С 5 6000 м мгла 4/4 1470 м
[Cu med, cong]
+20.2 +8.3 46 +21 +27 комфорт 1017.4 771.0 +5.8 +21.6
21 19.03 СЗ 6 6000 м мгла 4/4 1470 м
[Cu med, cong]
+23.0 +8.1 38 +24 +27 комфорт 1010.3 768.2
00 20.03 С 9 6000 м мгла 4/4 1470 м
[Cu med, cong]
+17.0 +11.8 71 +16 +16 1006.5 767.7 +5.8 +25.0
03 20.03 СЗ 6 4000 м мгла ясно +13.6 +7.4 66 +12 +12 1008.0 769.8
06 20.03 СВ 2 4000 м мгла ясно +10.8 +6.8 76 +10 +10 1010.2 770.4 +25.0
09 20.03 ЮВ 1 4000 м мгла ясно +8.4 +5.3 81 +8 +8 1011.8 769.3
12 20.03 штиль 0 4000 м мгла 4/4 400 м
[Sc]
+7.2 +4.0 80 +6 +6 1016.2 770.2 +6.8 +25.0
15 20.03 С 2 6000 м мгла 1/0
[Ac cast]
+13.0 +7.4 69 +12 +19 1019.0 771.6
18 20.03 СЗ 8 6000 м мгла 4/4 2000 м
[Cu Sc]
+19.6 +3.9 35 +19 +21 1016.7 771.1 +6.8 +20.8
21 20.03 С 7 6000 м мгла 4/4 2000 м
[Cu Sc]
+22.0 +8.9 43 +23 +26 комфорт 1011.1 769.2
00 21.03 С 8 6000 м мгла 3/3 2000 м
[Cu Sc]
+18.0 +10.4 61 +17 +17 1007.7 768.8 +6.8 +23.5
03 21.03 СЗ 7 4000 м мгла 4/4 700 м
[Sc]
+12.8 +7.2 69 +10 +10 1010.1 771.2
06 21.03 СВ 2 4000 м мгла 6/6 570 м
[Sc]
+11.8 +7.2 73 +11 +11 1012.3 771.8 +23.5
09 21.03 ЮЗ 1 4000 м мгла 8/8 330 м
[Sc]
+9.6 +6.9 83 +9 +9 1014.2 771.0
12 21.03 З 2 4000 м мгла 4/0
[Ac lent]
+8.8 +6.4 85 +7 +7 1017.2 771.5 +8.6 +23.5
15 21.03 С 3 6000 м мгла 4/0
[Ac trans]
+12.0 +6.7 70 +11 +15 1020.2 773.2
18 21.03 З 8 6000 м мгла 4/4
[Cu med, cong]
+19.8 +7.4 45 +20 +22 1017.9 772.4 +20.4 +8.6
21 21.03 С 9 6000 м мгла 4/4 1500 м
[Cu med, cong]
+19.8 +11.9 60 +21 +21 комфорт 1012.2 770.0
00 22.03 СЗ 8 6000 м мгла 4/4 1500 м
[Cu med, cong]
+14.2 +10.0 76 +12 +12 1010.1 769.8 +8.6 +22.5
03 22.03 ЮВ 3 4000 м мгла 6/6 1200 м
[Sc]
+12.3 +7.9 74 +11 +11 1012.7 772.1
06 22.03 СЗ 1 4000 м мгла 4/0
[As op]
+11.4 +7.8 79 +11 +11 1014.3 772.3 +8.6 +22.5
09 22.03 З 2 4000 м мгла 6/6 960 м
[Frnb]
+10.2 +7.0 81 +9 +9 1015.8 771.9
12 22.03 СЗ 1 4000 м мгла 5/5 1140 м
[Sc]
+8.6 +6.5 87 +8 +8 1017.7 771.8 +8.4 +22.5
18 22.03 С 3 6000 м мгла 5/5 1500 м
[Cu med, cong]
+21.6 +8.6 43 +23 +31 комфорт 1015.6 771.4 +8.0 +22.2
21 22.03 СЗ 7 6000 м мгла 5/5 1500 м
[Cu med, cong]
+22.0 +9.9 46 +24 +25 комфорт 1009.9 769.0
00 23.03 СЗ 8 5000 м мгла 6/6 1500 м
[Sc]
+17.0 +11.8 71 +16 +16 1006.6 768.2 +8.0 +23.0 0.1
03 23.03 СЗ 6 4000 м мгла 4/4 900 м
[Frnb]
+13.8 +6.5 61 +12 +12 1009.1 770.6
06 23.03 СЗ 4 4000 м мгла 4/4 360 м
[Frnb]
+12.0 +9.2 83 +10 +10 1012.2 771.7 +8.0 +23.0
09 23.03 ЮВ 1 4000 м мгла 4/4 270 м
[Frnb]
+10.8 +8.5 86 +10 +10 1013.6 770.9
12 23.03 ЮВ 1 4000 м мгла ясно +8.4 +6.7 89 +8 +8 1016.5 771.4 +8.2 +23.0
15 23.03 З 2 6000 м мгла ясно +13.5 +9.6 77 +13 +20 1019.2 772.7
18 23.03 З 6 6000 м мгла 3/3 1500 м
[Cu hum]
+19.2 +8.6 50 +20 +25 1017.5 772.4 +7.8 +21.0

 

Местоположение метеостанции Пачука (Мексика): широта 20.13 долгота -98.75 высота над уровнем моря 2435 м.

В архиве по умолчанию представлена погода в Пачуке за последнюю неделю. Архивные данные за месяц целиком и за предыдущие месяцы, начиная с января 2011 года, Вы можете получить, выбрав интересующий диапазон дат из раскрывающегося списка и нажав кнопку "Ввод!".


*Определитесь, кто Вы:
робот инопланетянин человек

Внимание! Время в таблицах - всемирное. Для получения местного времени необходимо прибавить поправку, которая равна -6 ч.

Смотрите также архив погоды в соседних городах и на ближайших метеорологических станциях:

Погода в Тулансинго (Мексика) (40 км)
Погода в Мехико (Мексика) (93 км)
Погода в Институте Географии (Мексика) (101 км)
Погода в Тлашкале (Мексика) (104 км)
Погода в Тлашкала аэропорту (Мексика) (106 км)
Погода в Маталапе (Мексика) (133 км)
Погода в Пуэбле (Мексика) (135 км)
Погода в Толуке (Мексика) (136 км)
Погода в Куэрнаваке (Мексика) (148 км)
Погода в Сакатепеке (Мексика) (165 км)

Пояснения к столбцам:

Ветер - указаны скорость ветра в м/с - средняя за 10 мин, порывы в срок и между сроками (в фигурных скобках) и направление, откуда дует ветер: С - северный, СВ - северо-восточный, В - восточный, ЮВ - юго-восточный, Ю - южный, ЮЗ - юго-западный, З - западный, СЗ - северо-западный.
Видимость - горизонтальная дальность видимости в метрах или километрах. При видимости от 1 до 10 км при отсутствии осадков обычно наблюдается дымка, при ухудшении видимости до 1 км и менее - туман. В сухую погоду видимость может ухудшаться дымом, пылью или мглою.
Явления - указаны атмосферные явления, наблюдавшиеся в срок или в последний час перед сроком; фигурными скобками обозначены явления, наблюдавшиеся между сроками (за 1-3 часа до срока); квадратными скобками обозначены град или гололедные отложения с указанием их диаметра в мм.
Облачность - указаны через наклонную черту общая и нижняя облачность в баллах и высота нижней границы облаков в метрах; квадратными скобками обозначены формы облаков: Ci - перистые, Cs - перисто-слоистые, Cc - перисто-кучевые, Ac - высококучевые, As - высокослоистые, Sc - слоисто-кучевые, Ns - слоисто-дождевые, Cu - кучевые, Cb - кучево-дождевые. Подробнее классификацию облаков см. в Атласе облаков (PDF).
T - Температура воздуха - температура, измеренная на высоте 2 м над землей.
Td - Температура точки росы - температура, при понижении до которой содержащийся в воздухе водяной пар достигнет насыщения.
f - Относительная влажность воздуха - влажноcть воздуха, измеренная на высоте 2 м над землей.
Te - Эффективная температура - температура, которую ощущает одетый по сезону человек в тени. Характеристика душности погоды. При расчете учитывается влияние влажности воздуха и скорости ветра на теплоощущения человека.
Tes - Эффективная температура на солнце - температура, которую ощущает человек, с поправкой на солнечный нагрев. Характеристика знойности погоды. Зависит от высоты солнца над горизонтом, облачности и скорости ветра. Ночью, в пасмурную погоду, а также при ветре 12 м/с и более поправка равна нулю.
P - Атмосферное давление - приведенное к уровню моря атмосферное давление.
Po - Атмосферное давление - измеренное на уровне метеостанции атмосферное давление.
Tmin - Минимальная температура - минимум температуры воздуха на высоте 2 м над землей.
Tmax - Максимальная температура - максимум температуры воздуха на высоте 2 м над землей.
R - Количество осадков - Количество выпавших осадков за период времени, мм. При наведении курсора мыши на число - период времени, за который выпало указанное количество осадков.
R24 - Количество осадков - Количество выпавших осадков за 24 часа, мм.
S - Снежный покров - Высота снежного покрова, см. При наведении курсора мыши на число - состояние снежного покрова и степень покрытия местности в баллах.